Zurück zum Katalog

STARLINK-35136

AktivKommunikationSSO
NORAD 65537·PAYLOAD·🇺🇸 United States

Gestartet Sep 6, 2025 von Cape Canaveral Space Force Station

Loading…

Nächste Überflüge (nächste 24 Stunden)

TLE

AktuellSource: CelesTrak SupGP

Epoche: Sep 15, 2026, 04:05 UTC

1 65537C 25200T   26258.17062500  .00022710  00000+0  70505-3 0  2588
2 65537  97.2851 324.7116 0001012  81.8371 143.0180 15.33424484    12

Verfolge STARLINK-35136 in Echtzeit mit AllMySat

Download on the App Store